Time,TemperatureF,DewpointF,PressureIn,WindDirection,WindDirectionDegrees,WindSpeedMPH,WindSpeedGustMPH,Humidity,HourlyPrecipIn,Conditions,Clouds,dailyrainin,SoftwareType,DateUTC
2013-06-03 00:07:00,56.4,56.0,29.83,ENE,62,0.0,0.0,99,0.00,,,0.00,weatherlink.com 1.10,2013-06-03 04:07:00,
2013-06-03 00:22:00,56.3,56.0,29.83,ENE,62,0.0,0.0,99,0.00,,,0.00,weatherlink.com 1.10,2013-06-03 04:22:00,
2013-06-03 00:37:00,56.2,56.0,29.83,ENE,62,0.0,0.0,99,0.00,,,0.00,weatherlink.com 1.10,2013-06-03 04:37:00,
2013-06-03 00:52:00,56.2,56.0,29.83,ENE,62,0.0,0.0,99,0.00,,,0.00,weatherlink.com 1.10,2013-06-03 04:52:00,
2013-06-03 01:07:00,55.8,56.0,29.82,NE,38,0.0,2.0,99,0.00,,,0.00,weatherlink.com 1.10,2013-06-03 05:07:00,
2013-06-03 01:22:00,55.5,55.0,29.83,NE,38,0.0,0.0,99,0.00,,,0.00,weatherlink.com 1.10,2013-06-03 05:22:00,
2013-06-03 01:37:00,55.3,55.0,29.83,NE,38,0.0,0.0,99,0.00,,,0.00,weatherlink.com 1.10,2013-06-03 05:37:00,
2013-06-03 01:52:00,55.5,55.0,29.82,East,80,1.0,2.0,99,0.00,,,0.00,weatherlink.com 1.10,2013-06-03 05:52:00,
2013-06-03 02:07:00,55.4,55.0,29.82,NNE,26,0.0,4.0,99,0.00,,,0.00,weatherlink.com 1.10,2013-06-03 06:07:00,
2013-06-03 02:37:00,55.5,55.0,29.82,ENE,62,0.0,1.0,99,0.00,,,0.00,weatherlink.com 1.10,2013-06-03 06:37:00,
2013-06-03 02:52:00,55.8,56.0,29.82,East,97,1.0,4.0,99,0.00,,,0.00,weatherlink.com 1.10,2013-06-03 06:52:00,
2013-06-03 03:07:00,55.8,56.0,29.81,ENE,61,0.0,4.0,99,0.00,,,0.00,weatherlink.com 1.10,2013-06-03 07:07:00,
2013-06-03 03:22:00,55.8,56.0,29.81,NE,49,0.0,4.0,99,0.00,,,0.00,weatherlink.com 1.10,2013-06-03 07:22:00,
2013-06-03 03:37:00,55.8,56.0,29.80,NE,43,0.0,4.0,99,0.00,,,0.00,weatherlink.com 1.10,2013-06-03 07:37:00,
2013-06-03 03:52:00,55.7,56.0,29.80,NE,56,0.0,5.0,99,0.00,,,0.00,weatherlink.com 1.10,2013-06-03 07:52:00,
2013-06-03 04:07:00,55.6,55.0,29.79,ENE,59,0.0,8.0,99,0.00,,,0.00,weatherlink.com 1.10,2013-06-03 08:07:00,
2013-06-03 04:22:00,55.4,55.0,29.79,NNW,331,2.0,8.0,99,0.00,,,0.00,weatherlink.com 1.10,2013-06-03 08:22:00,
2013-06-03 04:37:00,55.3,55.0,29.79,NNW,345,1.0,6.0,99,0.00,,,0.00,weatherlink.com 1.10,2013-06-03 08:37:00,
2013-06-03 04:52:00,55.0,55.0,29.79,NW,315,4.0,4.0,99,0.00,,,0.00,weatherlink.com 1.10,2013-06-03 08:52:00,
2013-06-03 05:07:00,54.7,55.0,29.79,WNW,303,2.0,3.0,99,0.00,,,0.00,weatherlink.com 1.10,2013-06-03 09:07:00,
2013-06-03 05:22:00,54.6,54.0,29.80,WNW,302,0.0,5.0,99,0.00,,,0.00,weatherlink.com 1.10,2013-06-03 09:22:00,
2013-06-03 05:37:00,54.8,55.0,29.80,NW,309,3.0,5.0,99,0.00,,,0.00,weatherlink.com 1.10,2013-06-03 09:37:00,
2013-06-03 05:52:00,55.0,55.0,29.81,NE,42,2.0,6.0,99,0.00,,,0.00,weatherlink.com 1.10,2013-06-03 09:52:00,
2013-06-03 06:07:00,55.1,55.0,29.82,North,5,0.0,4.0,99,0.00,,,0.00,weatherlink.com 1.10,2013-06-03 10:07:00,
2013-06-03 06:22:00,55.1,55.0,29.82,SW,217,3.0,4.0,99,0.00,,,0.00,weatherlink.com 1.10,2013-06-03 10:22:00,
2013-06-03 06:37:00,54.9,55.0,29.83,NW,305,2.0,4.0,99,0.00,,,0.00,weatherlink.com 1.10,2013-06-03 10:37:00,
2013-06-03 06:52:00,54.7,55.0,29.83,NW,305,3.0,6.0,99,0.00,,,0.00,weatherlink.com 1.10,2013-06-03 10:52:00,
2013-06-03 07:07:00,54.6,54.0,29.83,NE,55,4.0,6.0,99,0.00,,,0.00,weatherlink.com 1.10,2013-06-03 11:07:00,
2013-06-03 07:22:00,54.5,54.0,29.83,NW,311,1.0,8.0,99,0.00,,,0.00,weatherlink.com 1.10,2013-06-03 11:22:00,
2013-06-03 07:37:00,54.6,54.0,29.83,WNW,302,1.0,6.0,99,0.00,,,0.00,weatherlink.com 1.10,2013-06-03 11:37:00,
2013-06-03 07:52:00,54.6,54.0,29.83,WNW,302,3.0,7.0,99,0.00,,,0.00,weatherlink.com 1.10,2013-06-03 11:52:00,
2013-06-03 08:07:00,54.8,55.0,29.83,NNW,338,2.0,6.0,99,0.00,,,0.00,weatherlink.com 1.10,2013-06-03 12:07:00,
2013-06-03 08:22:00,54.8,55.0,29.83,NNW,336,2.0,8.0,99,0.00,,,0.00,weatherlink.com 1.10,2013-06-03 12:22:00,
2013-06-03 08:37:00,55.0,55.0,29.84,NW,315,6.0,10.0,99,0.00,,,0.00,weatherlink.com 1.10,2013-06-03 12:37:00,
2013-06-03 08:52:00,55.4,55.0,29.85,NW,310,2.0,11.0,99,0.00,,,0.00,weatherlink.com 1.10,2013-06-03 12:52:00,
2013-06-03 09:07:00,55.7,56.0,29.84,West,281,2.0,9.0,99,0.00,,,0.00,weatherlink.com 1.10,2013-06-03 13:07:00,
2013-06-03 09:23:00,56.3,56.0,29.85,WNW,301,3.0,13.0,99,0.00,,,0.00,weatherlink.com 1.10,2013-06-03 13:23:00,
2013-06-03 09:38:00,56.2,56.0,29.85,NNW,328,4.0,9.0,98,0.00,,,0.00,weatherlink.com 1.10,2013-06-03 13:38:00,
2013-06-03 09:53:00,57.3,57.0,29.85,NW,318,2.0,8.0,98,0.00,,,0.00,weatherlink.com 1.10,2013-06-03 13:53:00,
2013-06-03 10:08:00,57.9,57.0,29.85,NW,324,1.0,8.0,95,0.00,,,0.00,weatherlink.com 1.10,2013-06-03 14:08:00,
2013-06-03 10:23:00,58.8,57.0,29.85,WNW,301,3.0,8.0,93,0.00,,,0.00,weatherlink.com 1.10,2013-06-03 14:23:00,
2013-06-03 10:38:00,59.3,57.0,29.85,NW,315,1.0,8.0,92,0.00,,,0.00,weatherlink.com 1.10,2013-06-03 14:38:00,
2013-06-03 10:53:00,59.3,56.0,29.86,NNW,331,2.0,9.0,89,0.00,,,0.00,weatherlink.com 1.10,2013-06-03 14:53:00,
2013-06-03 11:08:00,60.2,57.0,29.86,SSW,211,3.0,8.0,89,0.00,,,0.00,weatherlink.com 1.10,2013-06-03 15:08:00,
2013-06-03 11:23:00,59.9,57.0,29.86,NNW,343,5.0,9.0,90,0.00,,,0.00,weatherlink.com 1.10,2013-06-03 15:23:00,
2013-06-03 11:38:00,60.4,57.0,29.86,NW,325,2.0,7.0,88,0.00,,,0.00,weatherlink.com 1.10,2013-06-03 15:38:00,
2013-06-03 11:53:00,61.9,58.0,29.86,NNE,15,3.0,7.0,87,0.00,,,0.00,weatherlink.com 1.10,2013-06-03 15:53:00,
2013-06-03 12:08:00,62.1,58.0,29.85,NW,311,2.0,11.0,85,0.00,,,0.00,weatherlink.com 1.10,2013-06-03 16:08:00,
2013-06-03 12:23:00,61.7,57.0,29.86,NNW,327,4.0,15.0,83,0.00,,,0.00,weatherlink.com 1.10,2013-06-03 16:23:00,
2013-06-03 12:38:00,62.2,56.0,29.86,NNE,33,2.0,13.0,80,0.00,,,0.00,weatherlink.com 1.10,2013-06-03 16:38:00,
2013-06-03 12:53:00,62.7,57.0,29.86,NNW,327,5.0,8.0,81,0.00,,,0.00,weatherlink.com 1.10,2013-06-03 16:53:00,
2013-06-03 13:08:00,63.7,58.0,29.86,NNW,338,1.0,10.0,81,0.00,,,0.00,weatherlink.com 1.10,2013-06-03 17:08:00,
2013-06-03 13:23:00,63.4,56.0,29.86,NW,315,4.0,10.0,78,0.00,,,0.00,weatherlink.com 1.10,2013-06-03 17:23:00,
2013-06-03 13:38:00,63.7,57.0,29.85,WNW,293,4.0,8.0,79,0.00,,,0.00,weatherlink.com 1.10,2013-06-03 17:38:00,
2013-06-03 13:53:00,64.3,57.0,29.84,NW,309,4.0,11.0,76,0.00,,,0.00,weatherlink.com 1.10,2013-06-03 17:53:00,
2013-06-03 14:08:00,63.6,57.0,29.84,WNW,301,4.0,8.0,78,0.00,,,0.00,weatherlink.com 1.10,2013-06-03 18:08:00,
2013-06-03 14:23:00,63.5,56.0,29.84,NW,308,7.0,9.0,76,0.00,,,0.00,weatherlink.com 1.10,2013-06-03 18:23:00,
2013-06-03 14:38:00,64.0,57.0,29.84,NW,325,1.0,10.0,78,0.00,,,0.00,weatherlink.com 1.10,2013-06-03 18:38:00,
2013-06-03 14:53:00,64.4,56.0,29.84,NW,309,5.0,12.0,73,0.00,,,0.00,weatherlink.com 1.10,2013-06-03 18:53:00,
2013-06-03 15:08:00,64.9,56.0,29.83,North,11,8.0,8.0,74,0.00,,,0.00,weatherlink.com 1.10,2013-06-03 19:08:00,
2013-06-03 15:23:00,64.4,56.0,29.83,NNW,331,2.0,8.0,75,0.00,,,0.00,weatherlink.com 1.10,2013-06-03 19:23:00,
2013-06-03 15:38:00,64.7,54.0,29.82,WNW,287,4.0,12.0,69,0.00,,,0.00,weatherlink.com 1.10,2013-06-03 19:38:00,
2013-06-03 15:53:00,64.5,54.0,29.82,NW,321,4.0,15.0,69,0.00,,,0.00,weatherlink.com 1.10,2013-06-03 19:53:00,
2013-06-03 16:08:00,64.7,55.0,29.81,NNW,332,0.0,10.0,70,0.00,,,0.00,weatherlink.com 1.10,2013-06-03 20:08:00,
2013-06-03 16:23:00,64.7,55.0,29.82,WNW,289,6.0,11.0,72,0.00,,,0.00,weatherlink.com 1.10,2013-06-03 20:23:00,
2013-06-03 16:38:00,64.0,57.0,29.81,North,350,4.0,12.0,79,0.00,,,0.00,weatherlink.com 1.10,2013-06-03 20:38:00,
2013-06-03 16:53:00,62.1,57.0,29.81,South,186,2.0,7.0,82,0.00,,,0.00,weatherlink.com 1.10,2013-06-03 20:53:00,
2013-06-03 17:08:00,60.9,56.0,29.81,West,268,3.0,12.0,84,0.00,,,0.00,weatherlink.com 1.10,2013-06-03 21:08:00,
2013-06-03 17:23:00,60.6,55.0,29.81,WNW,288,5.0,10.0,83,0.00,,,0.00,weatherlink.com 1.10,2013-06-03 21:23:00,
2013-06-03 17:38:00,60.5,55.0,29.81,NW,314,0.0,8.0,82,0.00,,,0.00,weatherlink.com 1.10,2013-06-03 21:38:00,
2013-06-03 17:53:00,61.0,56.0,29.82,WNW,286,2.0,9.0,82,0.00,,,0.00,weatherlink.com 1.10,2013-06-03 21:53:00,
2013-06-03 18:08:00,60.7,56.0,29.82,WSW,249,0.0,8.0,83,0.00,,,0.00,weatherlink.com 1.10,2013-06-03 22:08:00,
2013-06-03 18:23:00,60.7,56.0,29.82,WSW,240,1.0,9.0,83,0.00,,,0.00,weatherlink.com 1.10,2013-06-03 22:23:00,
2013-06-03 18:38:00,60.7,56.0,29.82,SW,225,1.0,9.0,83,0.00,,,0.00,weatherlink.com 1.10,2013-06-03 22:38:00,
2013-06-03 18:53:00,60.9,55.0,29.82,NW,310,3.0,7.0,82,0.00,,,0.00,weatherlink.com 1.10,2013-06-03 22:53:00,
2013-06-03 19:08:00,60.1,54.0,29.83,NNW,346,1.0,5.0,81,0.00,,,0.00,weatherlink.com 1.10,2013-06-03 23:08:00,
2013-06-03 19:23:00,59.8,54.0,29.84,SSW,194,2.0,7.0,82,0.00,,,0.00,weatherlink.com 1.10,2013-06-03 23:23:00,
2013-06-03 19:38:00,58.9,54.0,29.84,NW,311,4.0,7.0,84,0.00,,,0.00,weatherlink.com 1.10,2013-06-03 23:38:00,
2013-06-03 19:53:00,58.5,54.0,29.85,West,272,1.0,6.0,85,0.00,,,0.00,weatherlink.com 1.10,2013-06-03 23:53:00,
2013-06-03 20:08:00,58.2,54.0,29.85,West,279,2.0,4.0,86,0.00,,,0.00,weatherlink.com 1.10,2013-06-04 00:08:00,
2013-06-03 20:23:00,57.7,54.0,29.85,WNW,292,3.0,6.0,87,0.00,,,0.00,weatherlink.com 1.10,2013-06-04 00:23:00,
2013-06-03 20:38:00,57.4,54.0,29.86,WNW,284,0.0,4.0,87,0.00,,,0.00,weatherlink.com 1.10,2013-06-04 00:38:00,
2013-06-03 20:53:00,57.3,54.0,29.86,SW,225,0.0,5.0,88,0.00,,,0.00,weatherlink.com 1.10,2013-06-04 00:53:00,
2013-06-03 21:08:00,57.2,54.0,29.87,WNW,287,2.0,2.0,88,0.00,,,0.00,weatherlink.com 1.10,2013-06-04 01:08:00,
2013-06-03 21:23:00,57.0,54.0,29.87,SW,226,2.0,5.0,89,0.00,,,0.00,weatherlink.com 1.10,2013-06-04 01:23:00,
2013-06-03 21:38:00,56.8,54.0,29.87,WNW,296,4.0,6.0,90,0.00,,,0.00,weatherlink.com 1.10,2013-06-04 01:38:00,
2013-06-03 21:53:00,56.6,54.0,29.88,WSW,257,2.0,6.0,90,0.00,,,0.00,weatherlink.com 1.10,2013-06-04 01:53:00,
2013-06-03 22:09:00,56.3,54.0,29.88,WNW,288,3.0,6.0,91,0.00,,,0.00,weatherlink.com 1.10,2013-06-04 02:09:00,
2013-06-03 22:24:00,56.2,54.0,29.89,WSW,239,3.0,6.0,92,0.00,,,0.00,weatherlink.com 1.10,2013-06-04 02:24:00,
2013-06-03 22:39:00,56.3,54.0,29.90,WSW,240,2.0,3.0,93,0.00,,,0.00,weatherlink.com 1.10,2013-06-04 02:39:00,
2013-06-03 22:54:00,56.0,54.0,29.90,SW,223,0.0,3.0,93,0.00,,,0.00,weatherlink.com 1.10,2013-06-04 02:54:00,
2013-06-03 23:09:00,56.1,54.0,29.90,SE,138,0.0,3.0,93,0.00,,,0.00,weatherlink.com 1.10,2013-06-04 03:09:00,
2013-06-03 23:24:00,56.2,54.0,29.90,South,170,1.0,4.0,92,0.00,,,0.00,weatherlink.com 1.10,2013-06-04 03:24:00,
2013-06-03 23:39:00,56.2,54.0,29.91,SW,225,1.0,4.0,91,0.00,,,0.00,weatherlink.com 1.10,2013-06-04 03:39:00,
2013-06-03 23:54:00,56.2,54.0,29.91,West,279,0.0,1.0,91,0.00,,,0.00,weatherlink.com 1.10,2013-06-04 03:54:00,